Flag for U.S.A. Weather past 2 weeks in Philadelphia, Pennsylvania, U.S.A.

Now
66 °F

Passing clouds.


Feels Like: 66 °F
Forecast: 55 / 75 °F
Wind: No wind

Location: Philadelphia International Airport

Current Time: Sep 17, 2014 at 9:54:21 PM

Latest Report: Sep 17, 2014 at 8:54 PM


Visibility: 10 mi

Pressure: 29.98 "Hg

Humidity: 61%

Dew point: 52 °F

Location of PhiladelphiaLocation

Historic Weather in Philadelphia — Graph

°F

Philadelphia temperature yesterday

Maximum temperature yesterday: 74 °F (at 3:54 PM)
Minimum temperature yesterday: 60 °F (at 2:54 AM)
Average temperature yesterday: 67 °F

Past Weeks' High & Low Weather Summary

 TemperatureHumidityPressure
High93 °F (Sep 6, 2:54 PM)97% (Sep 5, 4:54 AM)30.30 "Hg (Sep 5, 4:54 AM)
Low53 °F (Sep 14, 6:54 AM)35% (Sep 7, 4:54 PM)29.85 "Hg (Sep 11, 3:54 PM)
Average71 °F66%30.09 "Hg
* Reported Sep 2 7:54 PM — Sep 17 7:54 PM, Philadelphia, Weather by CustomWeather, © 2014

Note: Actual official high and low records may vary slightly from our data, if they occured in-between our weather recording intervals... More about our weather records

Advertising

Philadelphia weather history for previous 24 hours

 ConditionsComfort  
Time TempWeatherWind HumidityBarometerVisibility
7:54 PM
Sep 17
70 °FPassing clouds.6 mph47%29.97 "Hg10 mi
6:54 PM72 °FScattered clouds.7 mph43%29.97 "Hg10 mi
5:54 PM73 °FScattered clouds.10 mph38%29.97 "Hg10 mi
4:54 PM74 °FScattered clouds.No wind37%29.96 "Hg10 mi
3:54 PM74 °FScattered clouds.6 mph37%29.97 "Hg10 mi
2:54 PM73 °FScattered clouds.7 mph40%29.98 "Hg10 mi
1:54 PM72 °FScattered clouds.5 mph40%30.00 "Hg10 mi
12:54 PM72 °FScattered clouds.5 mph43%30.03 "Hg10 mi
11:54 AM71 °FPassing clouds.5 mph42%30.04 "Hg10 mi
10:54 AM70 °FPassing clouds.6 mph47%30.06 "Hg10 mi
9:54 AM67 °FPassing clouds.7 mph55%30.07 "Hg10 mi
8:54 AM64 °FScattered clouds.No wind63%30.07 "Hg10 mi
7:54 AM59 °FScattered clouds.7 mph72%30.06 "Hg10 mi
6:54 AM58 °FPassing clouds.6 mph75%30.05 "Hg10 mi
5:54 AM58 °FPassing clouds.6 mph75%30.04 "Hg10 mi
4:54 AM56 °FPassing clouds.5 mph81%30.03 "Hg10 mi
3:54 AM57 °FClear.6 mph78%30.03 "Hg10 mi
2:54 AM59 °FClear.6 mph75%30.03 "Hg10 mi
1:54 AM59 °FClear.No wind75%30.04 "Hg10 mi
12:54 AM61 °FPassing clouds.No wind67%30.04 "Hg10 mi
11:54 PM
Sep 16
63 °FPassing clouds.6 mph63%30.04 "Hg10 mi
10:54 PM65 °FPassing clouds.6 mph59%30.03 "Hg10 mi
9:54 PM66 °FPassing clouds.9 mph56%30.03 "Hg10 mi
Weather by CustomWeather, © 2014

See weather overviewHow to use our weather pages